Regional Weather Roundup
Issued by NWS

Home | Current Version | Previous Version | Text Only | Print | Product List | Glossary Off
Versions: 1 2 3 4 5 6 7 8 9 10 11 12 13 14 15 16 17 18 19 20 21 22 23 24 25 26 27 28 29 30 31 32 33 34 35 36 37 38 39 40 41 42 43 44 45 46 47 48 49 50

468
ASUS44 KJAN 210303
RWRMS

MISSISSIPPI HOURLY WEATHER ROUNDUP
NATIONAL WEATHER SERVICE JACKSON MS
1000 PM CDT MON APR 20 2015

NOTE: "FAIR: INDICATES FEW OR NO CLOUDS BELOW 12,000 FEET WITH NO
SIGNIFICANT WEATHER AND/OR OBSTRUCTIONS TO VISIBILITY.

MSZ001>002-007>008-010>013-018>021-025>028-034>036-210400-
NORTHWEST MISSISSIPPI

CITY           SKY/WX    TMP DP  RH WIND       PRES   REMARKS
CLARKSDALE     FAIR      57  46  67 SW3       29.95R
CLEVELAND      FAIR      58  51  78 CALM      29.96R
GREENWOOD      CLEAR     53  48  83 CALM      29.96R
GREENVILLE     CLEAR     58  41  53 W6        29.96R
OLIVE BRANCH   PTCLDY    55  43  62 SW6       29.93R
OXFORD         FAIR      48  46  93 CALM      29.95R
TUNICA         CLEAR     55  48  76 SW5       29.95R
$$

MSZ003>006-009-014>017-022>024-029>033-037>039-210400-
NORTHEAST MISSISSIPPI

CITY           SKY/WX    TMP DP  RH WIND       PRES   REMARKS
COLUMBUS AFB   CLEAR     52  48  87 W2        29.95R
CORINTH        FAIR      50  46  87 CALM      29.92R
GOLDN TRIANGLE CLEAR     55  45  67 CALM      29.95R
STARKVILLE     FAIR      48  46  93 CALM      29.96R
TUPELO         CLEAR     53  46  77 CALM      29.94R
$$

MSZ040-058-210400-
CENTRAL MISSISSIPPI

CITY           SKY/WX    TMP DP  RH WIND       PRES   REMARKS
JACKSON INTL   PTCLDY    54  50  86 CALM      29.97R
JACKSON HAWKNS PTCLDY    57  50  77 CALM      29.98R
MERIDIAN KEY   PTCLDY    56  48  74 W3        29.97R
MERIDIAN NAS   CLEAR     57  47  69 CALM      29.97R
RAYMOND        FAIR      55  50  82 MISG      29.97R
VICKSBURG      PTCLDY    55  52  89 CALM      29.98R
$$

MSZ059>079-210400-
SOUTH MISSISSIPPI

CITY           SKY/WX    TMP DP  RH WIND       PRES   REMARKS
BROOKHAVEN       N/A     54  54 100 CALM      30.00R
HATTIESBURG    PTCLDY    60  52  74 NW5       29.98R
MCCOMB         MOCLDY    58  52  80 CALM      29.98R
NATCHEZ        PTCLDY    55  50  82 CALM      29.98R
PINE BELT      PTCLDY    61  46  59 NW5       29.98R
$$

MSZ080>082-210400-
COASTAL MISSISSIPPI

CITY           SKY/WX    TMP DP  RH WIND       PRES   REMARKS
BILOXI         PTCLDY    67  55  64 N3        29.94R
PASCAGOULA     PTCLDY    66  55  67 NW5       29.95R
GULFPORT       PTCLDY    65  54  67 NW7       29.95R
$$



USA.gov is the U.S. government's official web portal to all federal, state and local government web resources and services.